Погода в Камышлове

Погода в Камышлове : погода сейчас, прогноз погоды и архив. Всё, что Вы хотите узнать о погоде в Камышлове!

Хотите узнать прогноз погоды в Камышлове? Тогда Вам сюда: Погода в Камышлове

Поиск расширенной информации на нашем сайте:

Другие новости

Новости СМИ2

Главная страница сайта

Новости сайта

03.07.2017

Напоминаем, что на нашем специализированном сайте Метеоцентр.Азия вы можете получить высокодетализированные автоматические прогнозы погоды по пунктам России, СНГ и мира в авиационном формате (включающие направление и скорость ветра, видимость, явления погоды, количество и форму облачности, нижнюю и верхнюю границу облачности).


Погода в Камышлове - сегодня

Время (UTC), дата Ветер
(°,м/с) 
Видим.   Явления Облачность Т
(°С)
Тd
(°С)
f(%) Тe
(°С)
Pmin
(гПа)
dP
(гПа)
Po
(мм)
O2
(г/м3)
Тmin Tmax R s Состояние
почвы
09 21.02.18 280 (З) 20000 м    8/6 600 м средняя 
[Sc|Ac trans]
-7.2 -10.6 77 -9  1010.8  -0.6  746  310           
12 21.02.18 300 (СЗ) 20000 м    3/0 средняя 
[Cu med, cong|Ac trans]
-5.8 -12.9 57 -8  1011.1  0.3  746  308           
15 21.02.18 290 (З) 20000 м    8/6 600 м средняя 
[Sc|Ac trans]
-5.5 -10.6 67 -7  1010.5  -0.9  746  308           
18 21.02.18 270 (З) 4000 м    ясно 
-11.9 -14.4 82 -14  1013.5  0.8  748  316           
21 21.02.18 270 (З) 4000 м    ясно 
-13.4 -15.6 83 -17  1014.5  0.9  748  318           
00 22.02.18 230 (ЮЗ) 4000 м    ясно 
-13.3 -15.4 84 -13  1014.9  0.4  749  318           
06 22.02.18 260 (З) 20000 м    ясно 
-10.9 -13.9 78 -14  1014.6  -0.5  749  315  -14.8         
09 22.02.18 280 (З) 20000 м    10/10 600 м 
[Sc]
-8.1 -13.2 67 -12  1014.2  -0.2  748  312           
12 22.02.18 260 (З) 20000 м  слаб. ливневой снег  6/6 600 м 
[Sc]
-8.3 -13.9 64 -11  1014.8  0.6  749  312           
18 22.02.18 240 (ЮЗ) 4000 м    ясно 
-13.3 -17.6 70 -15  1017.2  1.1  750  319           
21 22.02.18 250 (З) 4000 м    ясно 
-15.9 -18.7 79 -18  1018.3  751  323           
00 23.02.18 220 (ЮЗ) 4000 м    ясно 
-17.5 -19.9 82 -20  1019.4  0.9  752  325           
06 23.02.18 290 (З) 20000 м    ясно 
-15.6 -19.2 74 -18  1020.2  0.5  752  323  -19.4         
09 23.02.18 260 (З) 20000 м    ясно 
-12 -19.1 55 -14  1019.9  752  319           
12 23.02.18 230 (ЮЗ) 20000 м    6/0 верхняя 
[Ci fib]
-12.1 -19.3 55 -15  1020.3  0.4  753  319           
15 23.02.18 170 (Ю) 4000 м    ясно 
-14.8 -19.8 66 -15  1020.4  0.1  753  322    -11.5       
18 23.02.18 280 (З) 4000 м    ясно 
-18.7 -21.6 78 -21  1021.2  0.5  753  327           
21 23.02.18 260 (З) 20000 м    ясно 
-20.3 -22.9 80 -21  1021.5  0.2  753  330           
00 24.02.18 260 (З) 4000 м    ясно 
-21.6 -24.4 78 -25  1022.2  0.6  754  331           
06 24.02.18 290 (З) 20000 м    ясно 
-17.8 -21.1 75 -18  1023.2  0.8  755  327  -22.6         
09 24.02.18 240 (ЮЗ) 20000 м    3/0 верхняя 
[Ci fib]
-12.3 -19.2 56 -14  1022.6  -0.2  754  320           
12 24.02.18 240 (ЮЗ) 20000 м    4/0 верхняя 
[Cs]
-11.9 -18.9 56 -14  1022.8  0.2  755  319           
18 24.02.18 250 (З) 4000 м    ясно 
-18.2 -20.9 79 -18  1023.7  0.4  755  327           
21 24.02.18 250 (З) 4000 м    ясно 
-18.6 -21.4 79 -19  1023.9  0.2  755  328           
00 25.02.18 240 (ЮЗ) 2000 м  слаб. ливневой снег  10/10 600 м кучево-дожд. 
[Cb cap]
-17.1 -19.9 79 -17  1024.7  0.9  756  326           
Время (UTC), дата Ветер
(°,м/с) 
Видим.   Явления Облачность Т
(°С)
Тd
(°С)
f(%) Тe
(°С)
Pmin
(гПа)
dP
(гПа)
Po
(мм)
O2
(г/м3)
Тmin Tmax R s Состояние
почвы

Для получения пояснительной информации подведите курсор к названию столбца.

ПОГОДА в Камышлове - архив

Всё, что Вы хотите узнать о погоде в Камышлове - удобно и подробно!

Выберите нужную дату (начиная с 1 января 2015* года) и нажмите кнопку "Найти".
Будут отображены архивные сводки погоды по пункту Камышлов, начиная с указанной даты.


Отображать данные в формате CSV (для использования в таблицах Excel)


Внимание! Наш архив погоды предназначен исключительно для личного некоммерческого использования в познавательных целях. Если Вам необходимы официальные справки о состоянии погоды (для производственных, юридических, коммерческих и т.п. целей), обращайтесь в органы Росгидромета.

*Примечание: данная дата относится к архиву по метеостанциям СССР (Россия, СНГ, Балтия).
Архив по метеостанциям Зарубежной Европы и Азии (кроме Китая) хранится 10 дней, по другим регионам земного шара (Китай, Африка, Америка, Австралия, Океания) - 1 день.

Камышлов - район местоположения метеостанции


Название, широта, долгота, высота метеостанции:
Камышлов 56.9°ш. 62.7°д. 127 м над ур. моря [Российская Федерация]

Дополнительная информация

В oтличие oт бoльшинства пoгoдных сайтoв мы публикуем пoдрoбную метеoинфoрмацию в детальнoм прoфессиoнальнoм фoрмате.

Характеристики температуры и влажнoсти вoздуха измеряются на высoте 2 м в тени вдали oт зданий и деревьев.
Скoрoсть ветра измеряется на высoте 10 м (на урoвне рoста челoвека скoрoсть ветра ниже в 1.5-2 раза). Если метеoстанция нахoдится в гoрoде или в лесу, тo скoрoсть ветра занижена на 2-4 м/с пo сравнению с oткрытым местoм. Скoрoсть ветра над акватoриями крупных рек и oзёр, а также на вершинах хoлмoв на 2-5 м/с выше, чем в oбычных услoвиях.
Атмoсфернoе давление в разных тoчках местнoсти мoжет значительнo oтличаться oт давления на метеoстанции, в зависимoсти oт услoвий рельефа (при пoдъёме на 10 м давление пoнижается примернo на 1 мм рт.ст.).